Stations météo

Publicité
Paris/Le Bourget, France (7150): Température de l'air & dewpoint: 16.01.2019 03:00:00 - 22.01.2019 03:00:00 (CET)Paris/Le Bourget, France (7150): Température de l'air 5cm: 16.01.2019 03:00:00 - 22.01.2019 03:00:00 (CET)Paris/Le Bourget, France (7150): Température de l'air -20cm & Température de l'air -100cm: 16.01.2019 03:00:00 - 22.01.2019 03:00:00 (CET)Paris/Le Bourget, France (7150): Vitesse du vent & gusts: 16.01.2019 03:00:00 - 22.01.2019 03:00:00 (CET)Paris/Le Bourget, France (7150): Direction du vent: 16.01.2019 03:00:00 - 22.01.2019 03:00:00 (CET)Paris/Le Bourget, France (7150): reduced air pressure: 16.01.2019 03:00:00 - 22.01.2019 03:00:00 (CET)Paris/Le Bourget, France (7150): visibility: 16.01.2019 03:00:00 - 22.01.2019 03:00:00 (CET)Paris/Le Bourget, France (7150): Quantités de précipitations: 16.01.2019 03:00:00 - 22.01.2019 03:00:00 (CET)
Date & Time tt [°C] td [°C] tt 5cm [°C] tt -20cm [°C] tt -100cm [°C] ff [km/h] ff [knt] fx [km/h] fx [knt] dd ppp [hPa] vv [km] rr [mm]
22.01.2019 03:00:00 - - - - - - - - - - - - -
22.01.2019 02:00:00 -2,3 -3,7 -3,3 2,5 6,5 19 10 27 15 SSE 1017,3 2,6 0,0
22.01.2019 01:00:00 -2,3 -3,4 -4,3 2,6 6,6 17 9 23 12 SSE 1018,2 2,1 0,0
22.01.2019 00:00:00 -2,7 -4,1 -5,3 2,6 6,6 13 7 18 10 SSE 1019,1 2,5 0,0
21.01.2019 23:00:00 -3,0 -5,2 -4,7 2,6 6,6 3 2 7 4 S 1019,5 3,5 0,0
21.01.2019 22:00:00 -2,4 -4,7 -4,7 2,7 6,6 3 2 6 3 E 1020,5 3,5 0,0
21.01.2019 21:00:00 -2,3 -4,8 -4,3 2,7 6,6 4 2 7 4 N 1021,2 3,5 0,0
21.01.2019 20:00:00 -0,9 -3,8 -3,0 2,7 6,6 3 2 5 3 ENE 1021,6 4,7 0,0
21.01.2019 19:00:00 -0,5 -4,2 -2,9 2,7 6,6 2 1 7 4 N 1021,6 6 0,0
21.01.2019 18:00:00 0,9 -4,2 -1,6 2,7 6,6 5 3 6 3 ENE 1021,9 9 0,0
21.01.2019 17:00:00 2,0 -4,3 2,7 2,6 6,6 3 2 6 4 NE 1022,2 11 0,0
21.01.2019 16:00:00 2,9 -4,6 6,2 2,6 6,6 3 1 10 5 NNW 1022,6 12 0,0
21.01.2019 15:00:00 2,8 -4,0 6,4 2,6 6,6 5 3 12 6 NE 1022,9 12 0,0
21.01.2019 14:00:00 2,1 -4,6 4,9 2,7 6,6 4 2 16 8 N 1023,6 11 0,0
21.01.2019 13:00:00 1,3 -4,2 3,1 2,7 6,6 8 4 14 8 NNE 1024,2 10 0,0
21.01.2019 12:00:00 -0,2 -3,7 0,4 2,7 6,6 7 4 18 10 N 1024,9 6 0,0
21.01.2019 11:00:00 -1,5 -4,2 -0,6 2,8 6,6 11 6 19 10 N 1025,2 4,9 0,0
21.01.2019 10:00:00 -2,4 -4,1 -4,0 2,8 6,7 11 6 17 9 NNW 1024,7 4,1 0,0
21.01.2019 09:00:00 -3,5 -4,9 -6,5 2,9 6,7 6 3 10 5 NNW 1024,0 3,3 0,0
21.01.2019 08:00:00 -4,4 -6,1 -7,0 2,9 6,7 0 0 10 6 N 1023,7 2,4 0,0
21.01.2019 07:00:00 -3,7 -5,4 -5,6 3,0 6,7 2 1 12 7 NNW 1023,5 2,7 0,0
21.01.2019 06:00:00 -2,7 -4,4 -3,8 3,0 6,7 6 4 15 8 N 1023,1 3,8 0,0
21.01.2019 05:00:00 -2,4 -4,3 -3,3 3,1 6,7 7 4 18 10 N 1023,0 3,6 0,0
21.01.2019 04:00:00 -1,8 -3,8 -2,9 3,1 6,7 7 4 14 8 N 1022,8 4,5 0,0
21.01.2019 03:00:00 -1,5 -3,5 -2,8 3,2 6,7 10 5 19 10 NNW 1022,7 4,9 0,0
21.01.2019 02:00:00 -1,4 -3,6 -2,6 3,3 6,7 6 4 13 7 NNW 1022,2 4,4 0,0
21.01.2019 01:00:00 -1,1 -3,5 -2,3 3,3 6,7 7 4 11 6 NNW 1022,0 6 0,0
21.01.2019 00:00:00 -0,5 -3,0 -1,3 3,4 6,7 8 4 15 8 N 1021,8 6 0,0
20.01.2019 23:00:00 0,0 -2,1 -1,2 3,5 6,7 8 4 14 7 NNW 1021,4 6 0,0
20.01.2019 22:00:00 0,9 -1,3 -0,3 3,5 6,7 6 3 21 11 N 1020,8 11 0,0
20.01.2019 21:00:00 1,7 -0,6 1,5 3,5 6,7 13 7 28 15 N 1020,3 13 0,0
20.01.2019 20:00:00 2,3 -0,6 2,1 3,5 6,8 16 8 29 15 N 1019,6 8 0,0
20.01.2019 19:00:00 2,7 -0,1 2,5 3,5 6,8 10 6 22 12 N 1018,5 8 0,0
20.01.2019 18:00:00 2,7 0,4 2,5 3,4 6,8 7 4 18 10 N 1017,7 6 0,0
20.01.2019 17:00:00 2,7 0,4 2,7 3,4 6,8 10 5 21 11 N 1017,0 7 0,0
20.01.2019 16:00:00 2,6 0,3 2,8 3,4 6,8 12 6 22 12 N 1016,3 7 0,0
20.01.2019 15:00:00 2,6 0,8 2,9 3,3 6,8 10 5 20 11 N 1015,9 4,4 0,0
20.01.2019 14:00:00 2,5 0,9 2,8 3,3 6,9 11 6 19 10 N 1015,6 5 0,0
20.01.2019 13:00:00 2,4 1,1 2,7 3,3 6,9 11 6 19 10 N 1015,4 5 0,0
20.01.2019 12:00:00 2,4 1,1 2,6 3,2 6,9 11 6 20 11 N 1015,1 6 0,0
20.01.2019 11:00:00 2,2 1,0 2,3 3,1 6,9 9 5 17 9 NNE 1014,5 6 0,0
20.01.2019 10:00:00 2,0 1,1 1,6 3,2 7,0 8 5 16 9 NNE 1013,6 4,9 0,0
20.01.2019 09:00:00 1,7 1,0 1,5 3,1 7,0 11 6 17 9 NNE 1012,8 3,9 0,0
20.01.2019 08:00:00 1,7 1,0 1,6 3,1 7,0 11 6 16 9 NNE 1011,9 3,1 0,0
20.01.2019 07:00:00 1,8 1,1 1,6 3,1 7,0 9 5 17 9 NE 1011,2 2,7 0,0
20.01.2019 06:00:00 1,7 1,0 1,6 3,1 7,0 11 6 16 9 ENE 1011,0 3,2 0,0
20.01.2019 05:00:00 1,8 1,1 1,6 3,0 7,0 8 4 14 8 ENE 1010,8 3,3 0,0
20.01.2019 04:00:00 1,8 1,1 1,6 3,0 7,1 10 6 16 8 ENE 1010,6 4,1 0,0
20.01.2019 03:00:00 1,8 0,9 1,6 3,0 7,1 8 4 12 6 ENE 1010,5 4,0 0,0
20.01.2019 02:00:00 1,8 0,9 1,6 3,0 7,1 9 5 13 7 ENE 1010,3 4,2 0,2
20.01.2019 01:00:00 2,1 1,1 1,8 2,9 7,1 10 5 14 7 E 1010,4 4,2 0,4
20.01.2019 00:00:00 2,1 1,1 1,8 2,9 7,1 8 4 15 8 E 1010,2 4,4 0,0
19.01.2019 23:00:00 2,2 1,0 1,8 2,9 7,1 10 6 15 8 ESE 1010,0 4,4 0,2
19.01.2019 22:00:00 2,2 0,9 1,7 2,9 7,1 10 5 20 11 ESE 1009,9 6 0,0
19.01.2019 21:00:00 2,0 0,8 1,5 2,9 7,2 10 5 16 9 E 1009,9 5 0,0
19.01.2019 20:00:00 1,8 0,6 1,3 2,9 7,2 10 6 16 8 ESE 1010,0 6 0,0
19.01.2019 19:00:00 1,7 0,5 1,3 2,9 7,2 11 6 19 11 ESE 1009,9 4,4 0,0
19.01.2019 18:00:00 1,6 0,4 1,2 3,0 7,2 13 7 20 11 ESE 1010,0 4,7 0,0
19.01.2019 17:00:00 1,5 0,3 1,2 3,0 7,2 13 7 23 12 ESE 1010,0 6 0,0
19.01.2019 16:00:00 1,6 0,1 1,3 3,0 7,2 12 7 23 12 ESE 1010,1 6 0,0
19.01.2019 15:00:00 1,6 -0,5 1,6 3,1 7,2 11 6 21 12 SE 1010,6 10 0,0
19.01.2019 14:00:00 2,0 -1,3 2,0 3,1 7,3 13 7 24 13 SE 1011,2 13 0,0
19.01.2019 13:00:00 2,0 -2,0 1,9 3,1 7,3 18 10 25 13 SE 1012,0 15 0,0
19.01.2019 12:00:00 1,0 -2,4 0,7 3,2 7,3 15 8 21 11 ESE 1012,8 10 0,0
19.01.2019 11:00:00 0,3 -2,6 -0,1 3,3 7,3 13 7 20 11 ESE 1013,4 14 0,0
19.01.2019 10:00:00 -0,6 -2,7 -3,5 3,3 7,3 12 7 19 10 ESE 1013,4 12 0,0
19.01.2019 09:00:00 -3,0 -4,6 -4,7 3,4 7,4 7 4 10 5 ESE 1013,6 11 0,0
19.01.2019 08:00:00 -2,8 -4,7 -4,8 3,4 7,4 7 4 12 7 E 1013,5 12 0,0
19.01.2019 07:00:00 -2,6 -4,2 -4,2 3,5 7,4 6 4 12 7 E 1013,9 13 0,0
19.01.2019 06:00:00 -2,5 -4,2 -4,2 3,5 7,4 5 3 13 7 ESE 1014,3 12 0,0
19.01.2019 05:00:00 -2,4 -4,3 -3,9 3,6 7,4 6 3 9 5 E 1015,0 14 0,0
19.01.2019 04:00:00 -2,4 -4,1 -4,0 3,7 7,4 6 4 12 7 E 1015,4 13 0,0
19.01.2019 03:00:00 -1,9 -3,8 -3,8 3,8 7,4 4 2 9 5 E 1016,0 13 0,0
19.01.2019 02:00:00 -1,9 -3,6 -3,9 3,8 7,4 5 3 10 5 E 1016,4 12 0,0
19.01.2019 01:00:00 -1,7 -3,6 -4,2 3,9 7,4 6 4 12 6 ESE 1017,0 15 0,0
19.01.2019 00:00:00 -1,9 -3,6 -3,8 4,0 7,4 7 4 13 7 ESE 1017,5 9 0,0
18.01.2019 23:00:00 -1,4 -3,3 -3,0 4,0 7,4 9 5 13 7 E 1017,5 9 0,0
18.01.2019 22:00:00 -0,3 -2,5 -1,5 4,1 7,4 10 6 22 12 ESE 1017,7 10 0,0
18.01.2019 21:00:00 0,4 -1,8 -0,6 4,3 7,4 13 7 25 13 ESE 1017,8 10 0,0
18.01.2019 20:00:00 1,2 -1,2 -1,0 4,3 7,4 16 9 25 13 ESE 1018,4 11 0,0
18.01.2019 19:00:00 1,1 -2,1 -0,6 4,3 7,4 10 6 18 10 ESE 1018,4 13 0,0
18.01.2019 18:00:00 2,3 -1,9 -0,3 4,3 7,4 13 7 19 10 ESE 1018,6 20 0,0
18.01.2019 17:00:00 3,5 -2,9 3,3 4,2 7,4 13 7 23 12 SE 1018,6 47 0,0
18.01.2019 16:00:00 5,1 -2,3 7,2 4,0 7,4 15 8 22 12 ESE 1018,7 26 0,0
18.01.2019 15:00:00 5,3 -2,3 8,1 3,9 7,4 13 7 22 12 SE 1019,0 36 0,0
18.01.2019 14:00:00 5,0 -2,1 6,9 3,8 7,5 13 7 21 11 SSE 1019,6 20 0,0
18.01.2019 13:00:00 4,9 -1,3 5,7 3,9 7,5 11 6 22 12 S 1020,3 20 0,0
18.01.2019 12:00:00 4,2 -0,2 3,5 3,9 7,4 8 5 15 8 SSE 1021,0 17 0,0
18.01.2019 11:00:00 1,4 0,1 -0,4 4,0 7,5 7 4 11 6 E 1021,0 7 0,0
18.01.2019 10:00:00 -0,5 -1,6 -2,3 4,1 7,5 4 2 5 3 N 1020,8 7 0,0
18.01.2019 09:00:00 -1,0 -2,3 -2,5 4,1 7,5 3 1 4 2 ENE 1020,4 10 0,0
18.01.2019 08:00:00 -1,3 -2,6 -3,2 4,3 7,5 0 0 4 2 N 1020,6 9 0,0
18.01.2019 07:00:00 -1,2 -2,6 -3,5 4,4 7,5 3 2 6 3 SW 1020,6 8 0,0
18.01.2019 06:00:00 -1,0 -2,4 -2,7 4,5 7,5 2 1 4 2 N 1020,5 11 0,0
18.01.2019 05:00:00 -0,5 -2,2 -1,9 4,5 7,5 4 2 8 4 N 1020,5 12 0,0
18.01.2019 04:00:00 -0,3 -2,4 -2,6 4,7 7,5 5 3 9 5 SW 1020,4 16 0,0
18.01.2019 03:00:00 -0,7 -3,1 -2,4 4,8 7,5 5 3 11 6 SSW 1020,3 16 0,0
18.01.2019 02:00:00 -0,6 -2,3 -3,7 4,9 7,5 8 4 11 6 WSW 1020,3 14 0,0
18.01.2019 01:00:00 -0,9 -2,8 -3,1 5,0 7,4 3 2 6 3 W 1020,0 12 0,0
18.01.2019 00:00:00 -0,5 -2,9 -3,1 5,2 7,4 4 2 10 5 ENE 1019,7 19 0,0
17.01.2019 23:00:00 0,7 -2,4 -2,1 5,4 7,4 8 4 15 8 W 1019,7 9 0,0
17.01.2019 22:00:00 1,1 -2,7 -1,8 5,5 7,4 6 3 16 8 WNW 1019,0 20 0,0
17.01.2019 21:00:00 1,1 -3,2 -1,5 5,7 7,4 6 4 20 11 W 1018,2 25 0,0
17.01.2019 20:00:00 2,3 -2,2 -0,7 5,8 7,4 10 5 19 10 NW 1017,5 48 0,0
17.01.2019 19:00:00 2,8 -2,5 0,9 5,9 7,4 7 4 22 12 NW 1016,5 53 0,0
17.01.2019 18:00:00 3,1 -0,2 1,5 5,9 7,4 8 4 28 15 WNW 1015,5 56 0,0
17.01.2019 17:00:00 4,6 -0,2 3,8 5,9 7,4 20 11 35 19 NNW 1014,6 60 0,0
17.01.2019 16:00:00 5,8 2,1 4,7 5,8 7,4 11 6 33 18 W 1013,0 60 0,0
17.01.2019 15:00:00 5,0 1,8 3,9 5,7 7,4 16 8 57 31 WNW 1012,4 20 0,2
17.01.2019 14:00:00 7,5 1,1 7,9 5,6 7,5 14 7 37 20 W 1011,5 20 0,0
17.01.2019 13:00:00 7,4 2,3 6,7 5,6 7,5 18 10 48 26 W 1011,4 39 0,0
17.01.2019 12:00:00 6,6 1,7 5,2 5,6 7,5 23 13 43 23 W 1011,1 35 0,2
17.01.2019 11:00:00 6,0 2,8 5,1 5,5 7,5 21 11 43 23 WNW 1010,2 15 0,0
17.01.2019 10:00:00 6,2 2,6 5,8 5,6 7,5 28 15 45 24 WSW 1008,9 51 0,0
17.01.2019 09:00:00 6,1 2,5 5,4 5,6 7,5 26 14 45 25 WSW 1008,0 60 0,0
17.01.2019 08:00:00 6,0 2,8 4,9 5,7 7,5 23 12 44 24 SW 1007,5 60 0,0
17.01.2019 07:00:00 6,0 3,0 4,8 5,7 7,5 25 13 48 26 SW 1006,9 60 0,0
17.01.2019 06:00:00 5,9 3,2 4,5 5,7 7,5 21 11 34 19 SW 1007,0 60 0,0
17.01.2019 05:00:00 5,9 3,4 4,6 5,7 7,5 18 10 33 18 WSW 1007,4 60 0,0
17.01.2019 04:00:00 5,8 3,8 5,0 5,7 7,5 16 8 23 12 SW 1007,5 60 0,2
17.01.2019 03:00:00 5,9 4,4 5,2 5,7 7,5 9 5 19 11 WSW 1007,5 24 0,2
17.01.2019 02:00:00 6,4 5,0 5,8 5,6 7,5 15 8 32 18 WSW 1007,4 14 0,8
17.01.2019 01:00:00 6,5 5,4 5,9 5,6 7,6 18 10 37 20 SSW 1007,4 4,8 0,4
17.01.2019 00:00:00 6,5 4,8 5,6 5,6 7,6 16 9 35 19 SSW 1007,7 15 0,2
16.01.2019 23:00:00 6,5 4,2 5,6 5,6 7,6 22 12 42 23 SW 1007,9 6 0,2
16.01.2019 22:00:00 6,8 3,0 5,1 5,6 7,6 21 11 43 23 SSW 1008,1 25 0,0
16.01.2019 21:00:00 6,4 2,7 5,1 5,6 7,6 24 13 45 25 SW 1008,3 11 0,0
16.01.2019 20:00:00 6,9 1,2 6,5 5,6 7,6 22 12 42 23 SSW 1008,7 33 0,0
16.01.2019 19:00:00 7,1 0,7 6,6 5,6 7,6 23 13 41 22 SSW 1008,8 37 0,0
16.01.2019 18:00:00 7,1 0,5 6,5 5,5 7,6 29 16 43 23 SSW 1009,0 42 0,0
16.01.2019 17:00:00 7,1 0,7 6,7 5,5 7,6 24 13 42 23 SSW 1009,5 41 0,0
16.01.2019 16:00:00 7,1 0,5 6,9 5,4 7,6 24 13 39 21 SW 1010,0 38 0,0
16.01.2019 15:00:00 7,2 0,6 7,4 5,2 7,6 20 11 32 18 SSW 1010,1 33 0,0
16.01.2019 14:00:00 7,5 0,5 9,0 5,2 7,6 17 9 27 15 SW 1011,1 27 0,0
16.01.2019 13:00:00 7,5 0,5 7,8 5,1 7,6 18 10 28 15 SW 1011,9 25 0,0
16.01.2019 12:00:00 6,5 0,2 6,5 5,2 7,6 18 10 26 14 SW 1013,2 28 0,0
16.01.2019 11:00:00 4,8 0,6 2,2 5,3 7,6 7 4 14 8 SE 1013,8 17 0,0
16.01.2019 10:00:00 2,2 0,1 0,1 5,4 7,6 10 6 15 8 SE 1014,4 16 0,0
16.01.2019 09:00:00 1,3 -0,8 -1,0 5,6 7,6 8 4 10 6 SE 1014,7 17 0,0
16.01.2019 08:00:00 1,6 -0,5 -1,2 5,7 7,6 9 5 13 7 SE 1015,0 20 0,0
16.01.2019 07:00:00 1,6 -0,7 -1,2 5,8 7,6 6 3 10 5 SE 1015,4 17 0,0
16.01.2019 06:00:00 1,9 -0,7 -0,7 6,0 7,6 2 1 8 4 S 1016,2 23 0,0
16.01.2019 05:00:00 3,5 -0,2 0,7 6,1 7,6 6 3 13 7 SW 1017,0 37 0,0
16.01.2019 04:00:00 3,9 -0,1 0,7 6,1 7,6 9 5 14 7 S 1017,5 40 0,0
16.01.2019 03:00:00 4,4 0,0 1,7 6,2 7,6 8 4 15 8 SSW 1018,3 43 0,0

tt = Température de l'air
td = dewpoint
tt 5cm = Température de l'air 5cm
tt -20cm = Température de l'air -20cm
tt -100cm = Température de l'air -100cm
ff = Vitesse du vent
fx = gusts
dd = Direction du vent
ppp = reduced air pressure
vv = visibility
rr = Quantités de précipitations

stations d'obs. à proximité